STARLINK-1396

decayed
NORAD ID: 45681 Int'l Des: 2020-035 Owner: SPXS Country: US Constellation: starlink
LEOCIRCULAR
Group

About STARLINK-1396

Description loading...

Altitude History

Altitude vs Time

uPlot chart will show altitude changes over time

Two-Line Element Set

1 45681U 20035AA 24188.41185093 .20957709 12377-4 19423-2 0 9992
2 45681 53.0136 229.7481 0005246 322.1080 52.9322 16.37950032227044
Epoch: Jul 6, 2024 • Age: 10487 hours

Current Status

Position data unavailable
Launch Date Jun 4, 2020
Age 5.2 years
Decay Date Jul 6, 2024
Type internet

Technical Details

Classification Payload
Mass 260.00 kg
Dry Mass 248.00 kg
Total Mass 260.00 kg
Length 0.20 m
Diameter 2.80 m
Span 9.00 m
Shape Box + pan
Manufacturer SPXS
Bus Type Starlink
Phase Status Unknown Transfer Status
Owner/State SPXS/US

Large Constellations

Loading constellations...